Simultaneous Nadir Overpasses (SNOs) Predictions

Prediction of SNOs between AQUA and GOES-15 Satellite Orbit:

Table of predicted SNOs for the next 14.0 days since TLE Epoch: 3/23/2017
Index Date Time (AQUA) AQUA Lat,Lon GOES-15 Lat,Lon Distance(km) Time Diff (sec)
1 03/24/2017 10:50:39 0.84,-138.61 0.04,-134.92 419.97 80
2 03/26/2017 10:38:31 0.16,-135.68 0.04,-135.00 76.44 80
3 03/28/2017 10:26:21 -0.47,-132.73 0.04,-135.07 266.57 80
4 03/28/2017 22:47:44 -0.67,-137.91 -0.04,-135.11 319.58 80
5 03/30/2017 22:35:34 -0.03,-134.96 -0.04,-135.17 22.63 80
6 04/01/2017 22:23:24 0.62,-132.02 -0.04,-135.22 363.70 80
7 04/02/2017 10:44:40 0.48,-137.18 0.05,-135.21 224.11 80
8 04/04/2017 10:32:30 -0.17,-134.23 0.05,-135.25 116.58 80
9 04/04/2017 22:53:54 -0.94,-139.42 -0.05,-135.29 469.52 80
10 04/06/2017 10:20:20 -0.83,-131.28 0.05,-135.30 457.01 80




NCC Satellite Simultaneous Nadir Overpasses (SNOs) Prediction Service
